Flight Track Log - Related Links

Times and Time Zones

All times are in EST time to prevent confusion due to time zone crossing. See the N277AG flight status page for this flight to view local times or setup timezone preferences in your user account.

Time Position Orientation Groundspeed Altitude Reporting Facility
EST Latitude Longitude Course Direction KTS MPH feet Rate Location/Type
Tue 03:23:03 PM 32.7500 -96.5333 164° South 107 123 700  Level Dallas / Fort Worth TRACON
Tue 03:24:15 PM 32.7000 -96.5167 164° South 134 154 2,200 1,176 Climbing Dallas / Fort Worth TRACON
Tue 03:25:31 PM 32.6994 -96.4594 91° East 149 171 3,600 1,000 Climbing Fort Worth Center
Tue 03:26:33 PM 32.7044 -96.4047 84° East 156 180 4,500 774 Climbing Fort Worth Center
Tue 03:27:35 PM 32.7186 -96.3533 72° East 162 186 5,200 726 Climbing Fort Worth Center
Tue 03:28:37 PM 32.7250 -96.2958 82° East 165 190 6,000 823 Climbing Fort Worth Center
Tue 03:29:39 PM 32.7278 -96.2422 86° East 164 189 6,900 774 Climbing Fort Worth Center
Tue 03:30:41 PM 32.7294 -96.1936 88° East 151 174 7,600 581 Climbing Fort Worth Center
Tue 03:31:43 PM 32.7269 -96.1397 93° East 153 176 8,100 435 Climbing Fort Worth Center
Tue 03:32:45 PM 32.7208 -96.0772 97° East 189 217 8,500 484 Climbing Fort Worth Center
Tue 03:33:47 PM 32.7178 -96.0167 93° East 171 197 9,100 288 Climbing Fort Worth Center
Tue 03:34:50 PM 32.7117 -95.9542 97° East 190 219 9,100 48 Level Fort Worth Center
Tue 03:35:52 PM 32.7072 -95.8836 94° East 198 228 9,200 -48 Climbing Fort Worth Center
Tue 03:36:54 PM 32.7003 -95.8142 97° East 210 242 9,000 -97 Descending Fort Worth Center
Tue 03:37:56 PM 32.6936 -95.7419 96° East 206 237 9,000 48 Level Fort Worth Center
Tue 03:38:58 PM 32.6886 -95.6719 95° East 210 242 9,100  Climbing Fort Worth Center
Tue 03:40:00 PM 32.6844 -95.6083 94° East 197 227 9,000 -48 Descending Fort Worth Center
Tue 03:41:02 PM 32.6786 -95.5461 96° East 203 234 9,000 97 Level Fort Worth Center
Tue 03:42:04 PM 32.6733 -95.4683 95° East 199 229 9,200 48 Climbing Fort Worth Center
Tue 03:43:06 PM 32.6692 -95.4028 94° East 200 230 9,100 -97 Descending Fort Worth Center
Tue 03:44:08 PM 32.6622 -95.3350 97° East 204 235 9,000 48 Descending Fort Worth Center
Tue 03:45:10 PM 32.6581 -95.2650 94° East 203 234 9,200 96 Climbing Fort Worth Center
Tue 03:46:13 PM 32.6550 -95.1997 93° East 199 229 9,200 -48 Level Fort Worth Center
Tue 03:47:15 PM 32.6497 -95.1325 95° East 202 232 9,100  Descending Fort Worth Center
Tue 03:48:17 PM 32.6456 -95.0672 94° East 199 229 9,200 48 Climbing Fort Worth Center
Tue 03:49:19 PM 32.6414 -95.0031 94° East 197 227 9,200 -48 Level Fort Worth Center
Tue 03:50:21 PM 32.6342 -94.9228 96° East 204 235 9,100 -48 Descending Fort Worth Center
Tue 03:51:23 PM 32.6311 -94.8569 93° East 202 232 9,100  Level Fort Worth Center
Tue 03:52:25 PM 32.6258 -94.7919 95° East 199 229 9,100 48 Level Fort Worth Center
Tue 03:53:27 PM 32.6208 -94.7278 95° East 198 228 9,200 97 Climbing Fort Worth Center
Tue 03:54:29 PM 32.6164 -94.6522 94° East 198 228 9,300 -48 Climbing Fort Worth Center
Tue 03:55:31 PM 32.6108 -94.5858 96° East 203 234 9,100 -48 Descending Fort Worth Center
Tue 03:56:33 PM 32.6061 -94.5142 94° East 203 234 9,200  Climbing Fort Worth Center
Tue 03:57:34 PM 32.6017 -94.4500 95° East 200 230 9,100 -95 Descending Fort Worth Center
Tue 03:57:36 PM 32.6033 -94.4475 52° Northeast 205 236 9,100 -122 Level Fort Worth Center
Tue 03:58:23 PM 32.5989 -94.3983 96° East 204 235 9,000 -97 Descending Fort Worth Center
Tue 03:58:38 PM 32.5989 -94.3756 90° East 205 236 9,000 295 Level Fort Worth Center
Tue 03:59:24 PM 32.5950 -94.3269 95° East 204 235 9,300 190 Climbing Fort Worth Center
Tue 03:59:41 PM 32.5953 -94.3092 89° East 201 231 9,200 -608 Descending Fort Worth Center
Tue 04:00:43 PM 32.5903 -94.2383 95° East 203 234 8,500 -828 Descending Fort Worth Center
Tue 04:01:37 PM 32.5844 -94.1719 96° East 221 254 7,600 -1,143 Descending Fort Worth Center
Tue 04:01:46 PM 32.5856 -94.1653 79° East 218 251 7,300 -1,180 Descending Fort Worth Center
Tue 04:02:38 PM 32.5825 -94.0981 93° East 228 262 6,400 -956 Descending Fort Worth Center
Tue 04:03:39 PM 32.5747 -94.0319 98° East 199 229 5,500 -917 Descending Fort Worth Center
Tue 04:03:50 PM 32.5756 -94.0206 85° East 204 235 5,300 -1,444 Descending Fort Worth Center
Tue 04:04:33 PM 32.5550 -93.9817 122° Southeast 191 220 4,200 -968 Descending Fort Worth Center
Tue 04:04:52 PM 32.5453 -93.9692 133° Southeast 182 209 4,300 -179 Climbing Fort Worth Center
Tue 04:05:40 PM 32.5522 -93.9300 78° East 172 198 4,000 -581 Descending Fort Worth Center
Tue 04:05:54 PM 32.5572 -93.9153 68° East 180 207 3,700 -1,180 Descending Fort Worth Center
Tue 04:06:41 PM 32.5611 -93.8675 84° East 201 231 2,800 -1,258 Descending Fort Worth Center
Tue 04:06:56 PM 32.5636 -93.8467 82° East 196 226 2,400 -1,309 Descending Fort Worth Center
Tue 04:07:36 PM 32.5639 -93.8078 90° East 197 227 1,600 -774 Descending Fort Worth Center
Tue 04:07:58 PM 32.5661 -93.7842 84° East 191 220 1,600 -900 Level Fort Worth Center
Tue 04:08:36 PM 32.5569 -93.7614 116° Southeast 146 168 700 -1,143 Descending Fort Worth Center
Tue 04:09:01 PM 32.5497 -93.7528 135° Southeast 140 161 400 -720 Descending Fort Worth Center
Tue 04:11:00 PM 32.5402 -93.7450 90° East  Level Estimated

Login

Don't have an account? Register now (free) for customized features, flight alerts, and more!